Location: Oundoundou
(13.6667°N, 13.5500°W)
Time: 03:30:55
(UTC+00:00)

Daily predictions for brighter satellites

Satellite Brightness Start Highest point End
(mag) Time Altitude Azimuth Time Altitude Azimuth Time Altitude Azimuth
CZ-3 R/B 4.4 01:43:16 10° SW 02:50:45 69° SSE 03:04:36 10° ENE
ADEOS II 4.4 03:36:11 10° NE 03:38:58 19° E 03:38:58 19° E
CENTAUR R/B 3.8 03:50:14 10° N 03:58:18 52° ENE 04:06:21 10° SE
Okean O Rocket 2.8 04:29:12 10° NNE 04:31:47 36° NNE 04:31:47 36° NNE
Cosmos 1452 Rocket 3.8 04:30:31 10° NNW 04:34:36 56° N 04:34:36 56° N
Delta 168 4.5 04:39:41 25° NE 04:39:41 25° NE 04:41:37 10° NE
Stardust Del rocket 4.3 04:40:12 58° SSE 04:40:27 58° SSE 04:49:00 10° ENE
SL-24 R/B 4.3 04:38:39 10° NNE 04:42:49 64° ESE 04:42:52 63° ESE
OAO 2 Rocket 3.3 04:44:02 85° WNW 04:44:09 86° NW 04:49:27 10° NE
Palapa 6 Rocket 4.0 04:46:16 53° SSW 04:46:16 53° SSW 04:51:49 10° SE
CZ-4B DEB 4.0 04:42:41 10° N 04:48:09 79° WNW 04:49:08 60° SSW
Cosmos 1420 Rocket 4.2 04:44:29 10° N 04:49:45 72° ENE 04:54:58 10° SSE
OAO 1 Rocket 4.3 04:50:48 70° SW 04:50:50 70° SW 04:56:07 10° SE
Cosmos 2278 3.6 04:45:16 10° NNW 04:50:59 90° ENE 04:56:40 10° SSE
Aurora 2 Rocket 3.1 04:52:50 42° NNW 04:52:50 42° NNW 04:56:19 10° NE
Cosmos 2100 Rocket 3.8 04:47:01 10° N 04:53:10 79° W 04:59:17 10° S
ASTRO E2 2.8 04:53:56 72° ENE 04:53:56 72° ENE 04:57:34 10° ENE
VEP-3 3.9 04:45:03 16° WNW 04:53:34 43° N 04:58:47 10° ENE
GPS 2-12 Rocket1 3.4 04:54:37 51° NW 04:55:09 55° N 04:59:47 10° ENE
Cosmos 2173 Rocket 3.8 04:49:36 10° N 04:55:48 83° W 05:01:55 10° S
Cosmos 2369 3.6 04:53:54 10° NNW 04:59:37 76° WSW 05:05:18 10° S
PSLV R/B 3.9 04:56:37 10° N 05:00:10 46° NW 05:00:10 46° NW
Cosmos 1656 3.7 04:58:58 10° NNW 05:04:23 76° ENE 05:09:50 10° SSE
Cosmos 2221 3.0 05:02:59 10° N 05:07:10 58° E 05:11:21 10° SSE
IRAS Rocket 4.2 05:04:15 10° N 05:09:51 74° WNW 05:13:38 21° SSW
Cosmos 1674 2.5 05:09:58 65° WSW 05:10:14 68° W 05:13:59 10° N
EO 1 Del DPAF 4.4 05:07:58 10° SSE 05:11:39 44° ENE 05:15:20 10° N
DNEPR-1 R/B 3.7 05:07:45 10° NNW 05:12:16 65° WSW 05:17:37 10° SSE
Cosmos 1980 Rocket 4.1 05:09:34 10° N 05:14:30 31° ENE 05:19:24 10° SE
deb Kosmos-1763 4.1 05:14:42 32° S 05:16:22 84° ESE 05:20:11 10° NNE
SL-24 R/B 4.5 05:13:55 10° N 05:18:45 81° E 05:23:54 10° S
Cosmos 2123 Rocket 4.2 05:15:25 22° SSW 05:19:15 48° W 05:25:17 10° NNW
ADEOS II 3.0 05:14:58 10° NNW 05:19:24 28° WNW 05:19:55 28° W
Meteor 1-21 Rocket 4.2 05:15:28 17° SSW 05:19:49 62° W 05:25:34 10° N
Cosmos 2251 Rocket 4.2 05:20:26 31° WSW 05:21:38 35° WNW 05:26:24 10° N
CZ-4B R/B 4.0 05:20:47 10° NNW 05:25:18 29° WNW 05:26:44 26° WSW
Cosmos 1184 Rocket 2.8 05:24:42 38° SW 05:25:40 56° W 05:28:58 10° N
Cosmos 2061 Rocket 4.2 05:20:49 10° NNW 05:26:36 44° W 05:32:26 10° SSW
ISS -2.1 05:26:01 14° S 05:28:17 29° SE 05:31:10 10° ENE
Cosmos 1340 Rocket 3.2 05:27:22 30° SW 05:28:39 39° W 05:32:24 10° NNW
Meteor PRIRODA 4.2 05:27:41 10° N 05:31:04 36° WNW 05:32:14 28° WSW
USA 267 3.2 05:25:28 10° SSE 05:31:59 77° SW 05:38:31 10° NW
Cosmos 2016 Rocket 4.1 05:28:04 10° NNW 05:34:08 52° W 05:40:17 10° SSW
SJ-6F 4.4 05:33:29 10° N 05:37:39 78° WNW 05:41:50 10° SSW
Cosmos 1447 Rocket 4.5 05:34:36 10° SSW 05:40:39 62° W 05:46:41 10° N
ERS-2 2.1 05:38:07 10° N 05:41:45 63° WNW 05:45:23 10° SSW
SWIFT 3.8 05:40:49 18° SW 05:42:09 20° SSW 05:45:22 10° SSE
Cosmos 2151 4.3 05:38:27 10° SSE 05:42:28 42° E 05:46:27 10° NNE
Cosmos 1328 3.7 05:43:13 10° S 05:47:11 82° W 05:51:08 10° N
CENTAUR R/B 4.0 05:42:17 10° WNW 05:48:43 25° WSW 05:55:05 10° SSW
Cosmos 2058 4.4 05:45:09 10° SSE 05:49:03 39° E 05:52:54 10° NNE
Okean-O 3.1 05:46:02 10° N 05:50:12 41° WNW 05:54:21 10° SSW
Meteor 1-31 Rocket 4.3 06:00:05 10° NNW 06:02:55 19° WNW 06:05:45 10° WSW
CZ-2C R/B 4.3 06:00:15 10° SSW 06:04:12 32° W 06:08:09 10° NW
Cosmos 1908 3.9 06:01:43 10° NNW 06:05:15 34° W 06:08:48 10° SSW
GPS 2-18 Rocket1 3.8 06:02:00 10° SW 06:05:35 43° SSE 06:09:08 10° E
Cosmos 1328 Rocket 4.0 06:01:49 10° N 06:06:13 69° E 06:10:37 10° S
Cosmos 1725 Rocket 4.5 06:01:41 10° NNW 06:07:24 38° W 06:13:11 10° SSW
SL-14 R/B 3.6 06:03:51 10° SSW 06:07:29 41° W 06:11:08 10° NNW
Mugunghwa Rocket 4.4 06:01:17 10° WSW 06:08:07 74° SSE 06:15:48 10° ENE
IDEFIX/ARIANE 42P 4.2 06:05:33 10° NNE 06:10:24 38° E 06:15:16 10° SSE
Cosmos 1500 Rocket 3.7 06:06:24 10° SSW 06:10:34 49° W 06:14:44 10° N
Cosmos 1726 2.5 06:07:37 10° N 06:11:22 71° E 06:15:07 10° S
Cosmos 2360 4.2 06:10:41 10° NNW 06:16:22 75° WSW 06:22:02 10° S
